LAB24 Weather Reports


time (UTC)temp
F
wind
direction
speed
knots
gust
knots
rain 1hr
in
rain 24hr
in
rain mn
in
humidity
%
barometer
mb
20260906090033 86 329 0.0 2.6 0.00 0.00 0.00 42 1020.5
20260906084523 85 209 0.9 4.3 0.00 0.00 0.00 41 1020.5
20260906083029 83 157 0.0 4.3 0.00 0.00 0.00 42 1020.2
20260906081529 82 336 0.0 1.7 0.00 0.00 0.00 44 1020.1
20260906080010 82 36 0.0 2.6 0.00 0.00 0.00 45 1020.0
20260906074520 81 161 0.9 3.5 0.00 0.00 0.00 45 1019.8
20260906073023 80 169 0.0 1.7 0.00 0.00 0.00 45 1019.9
20260906071505 78 100 0.0 0.9 0.00 0.00 0.00 46 1019.7
20260906070010 75 197 0.0 1.7 0.00 0.00 0.00 45 1019.7
20260906064512 73 308 0.0 1.7 0.00 0.00 0.00 45 1019.7
20260906063038 71 279 0.9 2.6 0.00 0.00 0.00 47 1019.6
20260906061504 69 308 0.9 3.5 0.00 0.00 0.00 49 1019.4
20260906060005 68 276 0.9 3.5 0.00 0.00 0.00 51 1019.4
20260906054511 67 329 1.7 3.5 0.00 0.00 0.00 54 1019.3
20260906053015 66 306 1.7 6.1 0.00 0.00 0.00 56 1019.1
20260906051543 65 327 1.7 4.3 0.00 0.00 0.00 58 1019.1
20260906050004 65 308 1.7 4.3 0.00 0.00 0.00 60 1019.1
20260906044510 65 318 1.7 4.3 0.00 0.00 0.00 60 1019.0
20260906043017 65 257 1.7 6.1 0.00 0.00 0.00 60 1019.1
20260906041524 66 288 1.7 5.2 0.00 0.00 0.00 59 1019.0
20260906040035 66 302 1.7 3.5 0.00 0.00 0.00 59 1018.9
20260906034508 66 281 1.7 5.2 0.00 0.00 0.00 59 1018.9
20260906033011 65 313 1.7 6.1 0.00 0.00 0.00 60 1018.9
20260906031517 66 277 1.7 5.2 0.00 0.00 0.00 59 1018.7
20260906030025 66 309 1.7 4.3 0.00 0.00 0.00 59 1018.8
20260906024530 66 276 1.7 5.2 0.00 0.00 0.00 59 1018.9
20260906023011 66 297 1.7 3.5 0.00 0.00 0.00 58 1018.9
20260906021519 66 318 1.7 5.2 0.00 0.00 0.00 59 1018.9
20260906020023 67 269 0.9 3.5 0.00 0.00 0.00 59 1018.9
20260906014530 66 305 0.9 3.5 0.00 0.00 0.00 59 1018.9
20260906013052 66 316 1.7 4.3 0.00 0.00 0.00 59 1018.9
20260906011512 67 293 0.9 3.5 0.00 0.00 0.00 58 1019.0
20260906010021 67 276 1.7 3.5 0.00 0.00 0.00 59 1019.0
20260906004527 67 275 1.7 3.5 0.00 0.00 0.00 59 1019.1
20260906003035 67 282 0.9 4.3 0.00 0.00 0.00 60 1019.1
20260906001532 67 279 1.7 5.2 0.00 0.00 0.00 59 1019.2
20260906000019 67 306 1.7 6.1 0.00 0.00 0.00 59 1019.3
20260905234527 68 252 1.7 3.5 0.00 0.00 0.00 57 1019.4
20260905233039 69 355 1.7 3.5 0.00 0.00 0.00 56 1019.4
20260905231521 68 275 1.7 5.2 0.00 0.00 0.00 57 1019.4
20260905230019 69 302 1.7 3.5 0.00 0.00 0.00 56 1019.4
20260905224520 69 298 1.7 6.1 0.00 0.00 0.00 55 1019.2
20260905223004 70 311 1.7 3.5 0.00 0.00 0.00 56 1019.3
20260905221507 70 306 1.7 4.3 0.00 0.00 0.00 57 1019.4
20260905220011 70 191 1.7 3.5 0.00 0.00 0.00 55 1019.2
20260905214521 70 313 0.9 3.5 0.00 0.00 0.00 55 1019.3
20260905213024 70 335 1.7 5.2 0.00 0.00 0.00 56 1019.4
20260905211503 71 273 0.9 4.3 0.00 0.00 0.00 55 1019.3
20260905210013 72 324 1.7 3.5 0.00 0.00 0.00 56 1019.2
20260905204512 72 286 0.9 3.5 0.00 0.00 0.00 56 1019.1
20260905203020 73 272 1.7 3.5 0.00 0.00 0.00 54 1019.1
20260905201529 73 301 1.7 3.5 0.00 0.00 0.00 56 1019.1
20260905200007 74 306 0.9 2.6 0.00 0.00 0.00 57 1019.2
20260905194510 74 311 0.9 2.6 0.00 0.00 0.00 56 1019.1
20260905193016 75 236 0.9 2.6 0.00 0.00 0.00 55 1019.1
20260905191534 75 338 0.9 3.5 0.00 0.00 0.00 56 1019.1
20260905190028 76 341 0.9 2.6 0.00 0.00 0.00 54 1018.9
20260905184512 76 269 0.0 3.5 0.00 0.00 0.00 54 1018.8
20260905183014 78 247 0.0 1.7 0.00 0.00 0.00 52 1018.8
20260905181524 78 331 0.0 1.7 0.00 0.00 0.00 50 1018.6
20260905180027 80 243 0.0 2.6 0.00 0.00 0.00 49 1018.6
20260905174535 81 286 0.0 1.7 0.00 0.00 0.00 45 1018.5
20260905173012 82 310 0.0 2.6 0.00 0.00 0.00 43 1018.4
20260905171526 83 134 0.0 1.7 0.00 0.00 0.00 44 1018.3
20260905170025 84 138 0.0 3.5 0.00 0.00 0.00 43 1018.3
20260905164528 86 211 0.9 3.5 0.00 0.00 0.00 41 1018.4
20260905163035 86 102 0.0 4.3 0.00 0.00 0.00 40 1018.2
20260905161504 88 88 0.9 3.5 0.00 0.00 0.00 38 1018.1
20260905160004 89 104 0.9 3.5 0.00 0.00 0.00 36 1018.2
20260905154504 90 95 0.9 5.2 0.00 0.00 0.00 34 1018.3
20260905153003 92 164 0.9 7.0 0.00 0.00 0.00 33 1018.2
20260905151504 92 138 0.9 5.2 0.00 0.00 0.00 31 1018.2
20260905150004 93 219 1.7 5.2 0.00 0.00 0.00 30 1018.2
20260905144503 94 123 1.7 7.0 0.00 0.00 0.00 29 1018.2
20260905143004 95 144 0.9 6.1 0.00 0.00 0.00 26 1018.2
20260905141504 96 94 0.9 3.5 0.00 0.00 0.00 23 1018.1
20260905140005 95 146 1.7 4.3 0.00 0.00 0.00 23 1018.2
20260905134505 95 110 0.9 3.5 0.00 0.00 0.00 23 1018.4
20260905133007 94 177 0.9 5.2 0.00 0.00 0.00 23 1018.5
20260905131511 94 239 1.7 5.2 0.00 0.00 0.00 23 1018.6
20260905130005 94 147 0.9 6.1 0.00 0.00 0.00 24 1018.7
20260905124507 95 200 0.9 6.1 0.00 0.00 0.00 24 1018.8
20260905123008 94 152 1.7 5.2 0.00 0.00 0.00 24 1018.8
20260905121504 95 116 1.7 7.0 0.00 0.00 0.00 24 1019.0
20260905120019 95 198 0.9 5.2 0.00 0.00 0.00 23 1018.9
20260905114513 94 186 2.6 6.1 0.00 0.00 0.00 25 1018.9
20260905113006 94 127 0.0 5.2 0.00 0.00 0.00 24 1019.0
20260905111508 94 128 1.7 6.1 0.00 0.00 0.00 25 1019.2
20260905110005 93 310 0.0 5.2 0.00 0.00 0.00 24 1019.2
20260905104516 93 175 0.9 6.1 0.00 0.00 0.00 25 1019.1
20260905103013 92 181 2.6 7.8 0.00 0.00 0.00 26 1019.3
20260905101510 92 136 2.6 6.1 0.00 0.00 0.00 28 1019.3
20260905100011 91 144 2.6 6.1 0.00 0.00 0.00 29 1019.3
20260905094506 91 107 0.9 6.1 0.00 0.00 0.00 28 1019.4
20260905093011 90 169 2.6 7.0 0.00 0.00 0.00 31 1019.4
20260905091512 89 128 2.6 6.1 0.00 0.00 0.00 31 1019.4